Regional Weather Roundup
Issued by NWS

Home | Current Version | Previous Version | Graphics & Text | Print | Product List | Glossary On
Versions: 1 2 3 4 5 6 7 8 9 10 11 12 13 14 15 16 17 18 19 20 21 22 23 24 25 26 27 28 29 30 31 32 33 34 35 36 37 38 39 40 41 42 43 44 45 46 47 48 49 50
000
ASUS43 KOAX 151002
RWRNE

WEATHER ROUNDUP FOR NEBRASKA
NATIONAL WEATHER SERVICE OMAHA NE
500 AM CDT TUE APR 15 2014

NOTES: SATELLITE DATA IS BEING USED TO AUGMENT CLOUD COVER ABOVE
       12000 FEET.
       "FAIR" INDICATES FEW OR NO CLOUDS BELOW 12,000 FEET WITH NO
       SIGNIFICANT WEATHER AND/OR OBSTRUCTIONS TO VISIBILITY.

  * THESE STATIONS DO NOT REPORT WEATHER SUCH AS RAIN...SNOW OR FOG.

NEZ001>004-019>022-054>056-151100-
NEBRASKA PANHANDLE

CITY           SKY/WX    TMP DP  RH WIND       PRES   REMARKS
SCOTTSBLUFF    CLEAR     22  18  85 E7        29.98F WCI  13
ALLIANCE       CLEAR     23  17  78 S8        29.97F WCI  14
CHADRON        CLEAR     25  19  78 W7        29.94F WCI  17
KIMBALL        CLEAR     26  18  72 SW8       29.98F WCI  17
SIDNEY         CLEAR     28  17  63 SW14      30.01F WCI  17
$$

NEZ057>060-069>072-079>082-151100-
SOUTHWEST NEBRASKA

CITY           SKY/WX    TMP DP  RH WIND       PRES   REMARKS
NORTH PLATTE   CLEAR     19  13  77 SE5       30.09F WCI  12
IMPERIAL       CLEAR     27  19  72 SW10      30.08F WCI  17
LEXINGTON      CLEAR     26  20  77 SW5       30.13F WCI  21
MCCOOK         CLEAR     26  23  88 SW6       30.13F WCI  19
OGALLALA       CLEAR     21  19  91 CALM      30.07F
$$

NEZ005>010-023>029-035>040-094-151100-
NORTH CENTRAL NEBRASKA

CITY           SKY/WX    TMP DP  RH WIND       PRES   REMARKS
VALENTINE      CLEAR     24  14  65 S9        30.04F WCI  14
AINSWORTH      CLEAR     20  15  80 S8        30.08F WCI  10
BROKEN BOW     CLEAR     18  14  84 CALM      30.11F
O`NEILL        CLEAR     18  12  76 CALM      30.13S
ORD            CLEAR     19  14  81 CALM      30.13F
THEDFORD       CLEAR     23  16  74 SE6       30.06F WCI  15
$$

NEZ041-046>049-061>064-073>077-083>087-151100-
SOUTH CENTRAL NEBRASKA

CITY           SKY/WX    TMP DP  RH WIND       PRES   REMARKS
GRAND ISLAND   CLEAR     27  23  85 SW3       30.17R
AURORA         CLEAR     27  26  93 SW3       30.16R
HASTINGS       CLEAR     25  21  85 CALM      30.15S
HEBRON         CLEAR     25  22  91 CALM      30.19R
HOLDREGE       CLEAR     27  20  72 SW3       30.13F
YORK           CLEAR     27  27 100 E3        30.16S
$$

NEZ011>018-030>034-042>045-151100-
NORTHEAST NEBRASKA

CITY           SKY/WX    TMP DP  RH WIND       PRES   REMARKS
NORFOLK        CLEAR     21  16  81 CALM      30.16S
ALBION         PTCLDY    22  18  83 CALM      30.15R
BLAIR          CLEAR     25  17  72 NW3       30.17S
COLUMBUS *     CLEAR     21  18  86 CALM      30.17S
FREMONT        CLEAR     25  19  78 NW3       30.18F
TEKAMAH        CLEAR     22  16  78 NW3       30.20R
$$

NEZ050>053-065>068-078-088>093-151100-
SOUTHEAST NEBRASKA

CITY           SKY/WX    TMP DP  RH WIND       PRES   REMARKS
LINCOLN        CLEAR     25  20  81 W3        30.20S
OMAHA EPPLEY   CLEAR     25  20  81 N6        30.19S WCI  18
BEATRICE       FOG       20  18  92 CALM      30.17F VSB 3/4
FALLS CITY     CLEAR     26  23  88 CALM      30.18F
NEBRASKA CITY  CLEAR     28  22  78 NW5       30.17F WCI  23
PLATTSMOUTH    CLEAR     26  20  76 W3        30.18S
$$

NEZ044-045-051>053-067-151100-
OMAHA AREA

CITY           SKY/WX    TMP DP  RH WIND       PRES   REMARKS
OMAHA EPPLEY   CLEAR     25  20  81 N6        30.19S WCI  18
BLAIR          CLEAR     25  17  72 NW3       30.17S
FREMONT        CLEAR     25  19  78 NW3       30.18F
MILLARD        CLEAR     27  19  71 CALM      30.19S
OFFUTT AFB     CLEAR     24  21  89 N2        30.19R
PLATTSMOUTH    CLEAR     26  20  76 W3        30.18S
WAHOO          FAIR      24  19  81 CALM      30.18F
$$



USA.gov is the U.S. government's official web portal to all federal, state and local government web resources and services.